Location: Bergnershof
(48.9468°N, 10.9431°E)
Time: 15:20:02
(UTC+00:00)

Cosmos 2333 Rocket - Pass Details

Date: 29 June 2021
Orbit: 841 x 861 km, 70.8° (Epoch: 28 July)

Event Time Altitude Azimuth Distance (km) Brightness Sun altitude
Rises 20:11:00 0° 234° (SW) 3,422 5.5 -6.5°
Reaches altitude 10° 20:13:39 10° 243° (WSW) 2,486 4.9 -6.8°
Maximum altitude 20:18:55 37° 310° (NW) 1,308 4.0 -7.4°
Drops below altitude 10° 20:24:11 10° 17° (NNE) 2,486 5.1 -7.9°
Sets 20:26:51 0° 26° (NNE) 3,422 5.7 -8.2°
